Weather in Generalovsky

Russia / Volgograd Oblast     48°00′19″N   43°13′09″E
temp.,
°C
wind,
m/s
gust,
m/s
humid.,
%
clouds,
%
prec.,
mm/h
press.,
hPa
HPBL,
m
6 august, fri
fri600:00+25e6123343 0.0 1014327
03:00+24e61333100 0.0 1013336
06:00+24e5113654 0.0 1014314
09:00+30ese682514 0.0 1013807
12:00+33e66216 0.0 10122038
15:00+35ese651971 0.0 10112581
18:00+33e661930 0.0 10102285
21:00+28e51225100 0.0 1010226
7 august, sat
sat700:00+27e7152471 0.0 1010398
03:00+26e71626100 0.0 1010415
06:00+25e71625100 0.0 1010506
09:00+31ese91219100 0.0 1009897
12:00+35ese81016100 0.0 10081780
15:00+37e8915100 0.0 10072457
18:00+36ene7101770 0.0 10061253
21:00+32e8172116 0.0 1007584
8 august, sun
sun800:00+30e71523100 0.0 1008454
03:00+28e5132572 0.0 1009385
06:00+27ese61425100 0.0 1010437
09:00+31ese71020100 0.0 1010849
12:00+34e691799 0.0 10091775
15:00+34ene4618100 0.0 1009293
18:00+35e9141699 0.0 10071035
21:00+33e8161657 0.0 1008662
9 august, mon
mon900:00+28ese472399 0.0 1009207
03:00+25se332599 0.0 101041
06:00+25ese2434100 0.0 1011133
09:00+31se4527100 0.0 1012775
12:00+35sw22235 0.0 10111662
15:00+36wnw44235 0.0 10111269
18:00+35ne2326100 0.3 1010819
21:00+28e4103745 0.6 1012178
10 august, tue
tue1000:00+26ne363293 0.5 1011127
03:00+25w1134100 0.6 101112
06:00+25ene2331100 0.0 101145
09:00+28sw2229100 0.0 1011372
12:00+31wsw322729 0.0 1011825
15:00+33w423147 0.0 10101581
18:00+32w23355 0.3 1009772
21:00+28ssw22436 0.3 101016